Temperature
7 7 7 7 7 8 8 8 8 9 9 9 9 9 9 9 9 9 9 9 9 9 9 9 9 9 9 10 10 10 10 10 10 9 9 9 8 8 7 7 7 6 6
6 6 6 7 7 7 8 8 8 8 9 9 9 9 9 9 9 9 9 9 9 9 9 9 9 9 9 9 9 9 9 9 9 9 9 8 8 8 7 7 6 6 6
6 6 6 6 7 7 7 8 8 8 8 9 9 9 9 9 9 9 9 9 9 9 9 9 9 9 9 9 9 9 9 9 9 9 9 8 8 7 7 6 6 6 5
5 6 6 6 6 7 7 7 8 8 8 8 9 9 9 9 9 9 9 9 9 9 9 9 9 9 9 9 9 9 9 8 8 8 8 8 7 7 6 6 6 5 5
5 5 6 6 6 6 7 7 7 8 8 8 8 9 9 9 9 9 9 9 9 9 9 9 10 9 9 9 9 9 9 8 8 8 7 7 7 7 6 6 6 5 5
5 5 5 5 6 6 6 7 7 8 8 8 8 8 9 9 9 9 9 9 9 9 9 9 9 9 9 9 9 9 8 8 8 8 7 7 7 7 6 5 5 5 4
4 4 5 5 5 6 6 6 7 7 7 8 8 8 8 9 9 9 9 9 9 9 9 9 9 9 9 9 8 8 8 8 8 7 7 7 7 6 6 5 5 4 4
4 4 4 5 5 6 6 6 7 7 7 8 8 8 8 9 9 9 9 9 9 9 9 9 9 9 9 8 8 8 8 7 7 7 7 7 6 6 5 5 4 4 3
4 4 4 4 5 5 5 6 6 7 7 7 8 8 8 8 8 8 8 8 9 9 9 9 9 9 8 8 8 8 7 7 7 7 6 6 6 5 5 4 4 3 3
3 4 4 4 4 5 5 6 6 6 7 7 7 7 8 8 8 8 8 8 8 8 8 8 8 8 8 8 8 7 7 7 7 6 6 6 5 5 4 4 3 3 2
3 3 3 4 4 5 5 5 6 6 6 7 7 7 7 8 8 8 8 8 8 8 8 8 8 8 8 8 7 7 7 7 6 6 6 5 5 4 4 3 3 2 2
2 3 3 3 4 4 5 5 5 6 6 6 7 7 7 7 8 8 8 8 8 8 8 8 8 8 7 7 7 7 7 6 6 6 5 5 4 4 3 3 2 2 1
2 2 3 3 3 4 4 5 5 5 5 6 6 7 7 7 7 8 8 8 8 8 8 8 8 7 7 7 6 6 6 6 6 5 5 4 4 3 3 2 2 1 1
2 2 2 2 3 3 4 4 4 5 5 5 6 6 6 7 7 7 7 7 7 7 7 7 7 7 6 6 6 6 6 6 5 5 5 4 3 3 2 2 1 1 1
1 1 2 2 2 3 3 4 4 5 5 5 6 6 6 6 7 7 7 7 7 7 7 6 6 6 6 6 6 5 5 5 5 4 4 4 3 2 2 1 1 1 1
0 1 1 1 2 2 3 3 4 4 5 5 6 6 6 6 6 6 6 7 7 7 6 6 6 6 6 6 6 5 5 5 4 4 4 3 3 2 2 1 1 0 0
-0 -0 0 1 1 1 2 3 3 4 4 5 5 5 6 6 6 6 6 6 6 6 6 6 6 6 6 6 5 5 5 4 4 4 3 3 2 2 1 1 0 0 -0
-1 -1 -0 0 1 1 2 2 3 3 4 4 5 5 5 5 5 6 6 6 6 6 6 6 6 6 6 6 5 5 4 4 4 3 3 2 2 1 1 1 0 -0 -0
-1 -1 -1 -0 0 1 1 2 2 2 3 4 4 4 5 5 5 5 5 6 6 6 6 6 6 6 6 5 5 5 4 4 4 3 3 2 2 1 1 0 -0 -1 -1
-2 -1 -1 -1 -0 0 1 1 2 2 3 3 4 4 4 4 4 4 5 5 5 5 6 6 6 5 5 5 5 4 4 4 3 3 2 2 1 1 1 0 -0 -1 -1
-2 -2 -2 -1 -1 0 1 1 1 2 2 3 3 4 4 4 4 4 4 5 5 5 5 5 5 5 5 5 5 4 4 4 3 3 2 2 1 1 0 -0 -1 -1 -1
-3 -2 -2 -2 -1 -0 0 1 1 2 2 2 3 3 3 4 4 4 4 5 5 5 5 5 5 5 5 5 5 4 4 3 3 3 2 2 1 1 0 -0 -1 -1 -2
-3 -3 -2 -2 -1 -1 -0 0 1 1 2 2 2 3 3 3 3 4 4 4 4 5 5 5 5 5 4 4 4 4 4 3 3 3 2 2 1 1 0 -0 -1 -1 -2
-3 -3 -3 -2 -1 -1 -0 0 1 1 1 1 2 2 2 3 3 3 4 4 4 4 4 4 4 4 4 4 4 3 3 3 2 2 2 2 1 0 -0 -1 -1 -2 -2
-4 -3 -3 -2 -2 -1 -1 -0 0 1 1 1 1 2 2 3 3 3 3 3 3 4 4 4 4 4 3 3 3 3 3 2 2 2 1 1 1 0 -0 -1 -1 -2 -2
-4 -3 -3 -2 -2 -2 -1 -0 0 1 1 1 1 2 2 2 2 3 3 3 3 3 3 3 3 3 3 3 3 3 2 2 2 1 1 1 0 -0 -1 -1 -1 -2 -2
Wind_Speed
5 5 5 6 7 7 8 10 10 9 10 12 12 14 14 15 15 15 15 15 16 14 12 13 12 10 8 7 6 5 5 4 4 2 2 2 3 3 3 3 4 3 3
5 5 5 5 5 6 8 9 9 9 10 11 12 13 14 15 15 15 15 16 17 16 15 14 13 10 10 8 7 7 6 5 4 4 2 2 2 3 3 2 1 2 2
5 5 5 4 4 6 7 8 9 10 9 10 12 12 14 15 15 15 16 16 16 16 15 15 14 13 12 8 8 8 6 4 4 4 3 2 1 2 2 1 1 0 1
6 5 5 5 5 6 6 6 7 8 9 10 12 12 13 14 14 14 14 15 14 13 13 14 14 15 14 12 10 9 7 6 5 4 3 2 2 2 2 1 0 0 1
6 6 6 5 5 5 5 6 6 8 9 10 10 11 11 12 13 13 13 14 14 13 12 12 13 14 15 13 10 10 10 7 6 5 4 2 2 2 3 2 1 0 1
6 6 6 5 5 5 5 6 6 7 8 9 10 10 11 11 13 16 15 14 14 14 13 11 11 13 15 16 15 14 13 10 9 6 5 5 4 4 3 3 2 1 2
6 6 5 5 5 5 6 5 6 7 7 9 11 11 11 12 14 15 16 13 13 13 13 11 9 10 14 12 13 13 11 11 12 9 7 6 6 6 6 4 3 2 2
5 5 6 6 5 5 5 5 5 6 7 8 9 10 10 10 15 14 15 12 11 11 12 13 12 11 12 13 11 10 7 6 7 6 7 6 5 6 6 6 4 3 1
6 6 5 5 5 4 5 6 6 5 6 7 8 8 9 9 14 15 14 10 10 10 10 11 12 12 16 18 14 12 9 6 7 10 10 10 10 10 9 6 4 3 0
7 7 6 5 5 5 6 6 5 4 5 6 6 7 9 9 13 15 15 9 10 9 8 10 14 14 17 19 15 14 12 9 9 8 9 9 8 8 9 6 5 3 2
7 6 5 5 5 5 5 5 4 4 4 5 6 6 7 9 12 15 16 10 10 10 9 8 10 17 18 19 16 12 14 13 10 9 8 6 5 4 3 4 3 4 3
6 6 6 5 5 4 4 4 3 4 4 5 5 5 5 7 9 13 16 13 12 10 9 8 9 16 17 18 14 15 19 15 9 8 7 6 5 4 3 3 4 4 3
6 6 6 5 5 4 4 4 3 4 4 4 5 5 5 5 7 11 14 13 13 9 8 11 13 16 15 13 16 19 17 11 9 8 7 5 4 4 4 4 4 5 5
6 6 5 5 5 4 4 4 3 4 4 4 5 5 5 5 6 7 8 9 11 9 9 12 15 15 12 13 14 12 9 9 9 9 7 6 5 4 4 3 3 2 2
6 6 5 4 4 4 4 4 4 5 6 6 5 5 6 6 7 9 9 8 9 9 10 8 7 9 8 8 8 8 8 8 8 7 8 7 6 5 4 3 2 2 2
6 6 5 4 4 4 4 4 5 5 5 7 7 7 6 6 8 10 11 11 14 17 12 9 9 9 10 10 9 9 8 8 8 8 8 7 7 6 5 3 2 2 2
7 6 5 5 4 4 4 3 3 2 1 4 7 7 8 9 10 11 12 13 15 16 9 9 9 10 10 9 9 8 7 8 8 8 8 8 7 6 5 4 3 3 2
7 7 7 5 4 4 4 4 3 2 2 1 3 6 9 10 11 13 14 12 9 9 8 9 9 9 10 9 9 8 8 9 8 8 8 7 7 7 6 5 4 3 2
7 6 5 5 5 4 4 4 3 3 3 3 2 3 7 10 12 13 13 8 9 8 8 8 9 9 9 9 9 9 9 9 9 9 8 8 7 7 6 5 4 5 3
6 9 8 5 4 4 3 3 3 4 4 4 4 4 5 7 6 7 6 6 7 8 8 9 9 9 10 10 10 10 9 9 10 8 8 7 7 7 7 6 5 4 3
6 7 8 6 4 4 4 4 4 4 4 4 4 5 7 6 7 7 6 6 7 8 9 9 9 9 10 10 10 10 11 9 9 8 8 8 7 6 6 5 5 4 3
6 6 5 5 4 4 4 4 4 4 5 5 4 4 6 5 6 6 5 5 6 7 8 9 9 9 9 10 11 11 11 10 10 9 8 8 7 7 6 5 5 4 4
6 6 5 5 4 5 5 4 4 4 4 5 5 4 4 5 5 6 6 6 7 7 7 8 9 9 8 8 9 10 11 11 10 11 10 9 8 7 7 6 6 6 4
5 5 6 5 4 4 4 4 4 4 4 4 5 5 5 5 6 6 7 7 8 8 8 8 9 11 12 9 9 10 11 12 13 12 12 11 9 8 7 6 6 6 5
5 5 5 5 5 4 4 4 4 4 4 4 5 5 6 6 7 7 7 8 9 9 9 9 9 11 13 13 12 12 16 18 16 14 12 10 10 9 8 7 6 6 5
5 5 5 4 5 5 4 4 4 4 4 4 4 5 6 7 8 8 8 8 9 9 9 8 10 12 14 13 15 18 20 20 19 18 14 11 9 9 8 7 7 6 6
Wind_Direction
281 272 260 245 228 222 222 220 208 203 201 202 204 202 198 197 192 193 192 190 193 192 190 194 196 186 185 184 179 175 173 163 185 199 163 152 164 170 172 186 201 213 239
280 272 261 256 240 228 228 225 211 204 203 206 206 202 198 196 194 195 193 192 193 194 194 193 195 188 187 185 183 182 180 171 168 187 176 160 168 172 164 166 185 212 246
283 273 262 263 260 245 235 229 216 209 210 209 204 201 199 195 194 197 197 195 196 196 193 194 192 187 192 187 184 184 178 168 157 164 178 156 148 139 133 116 95 313 288
286 278 266 260 259 259 247 239 229 214 214 209 202 201 200 195 194 195 196 194 194 193 193 194 193 192 193 187 186 183 171 163 153 154 166 157 147 129 134 153 258 297 313
290 278 273 271 264 267 259 243 237 221 217 206 199 201 197 194 193 191 194 192 191 191 192 195 195 191 188 186 185 180 173 172 164 166 175 165 170 165 181 165 196 282 297
285 272 269 275 276 269 268 258 236 218 216 207 200 198 200 199 192 188 190 193 191 191 192 193 189 185 184 183 180 176 176 178 180 179 185 187 190 179 156 155 151 128 278
281 275 266 267 273 275 276 272 241 223 213 208 200 197 204 200 186 188 187 190 191 191 189 186 185 186 180 180 175 170 176 179 178 177 180 187 179 177 162 161 168 175 211
290 284 275 268 271 275 274 273 258 233 211 206 204 198 200 197 185 184 181 185 187 186 187 184 182 179 179 170 164 161 161 167 169 164 167 169 161 159 164 164 159 133 93
299 295 288 273 268 274 273 270 262 243 216 207 206 201 201 198 184 179 175 181 183 183 184 181 178 177 171 164 161 157 151 145 133 134 130 128 129 134 136 125 122 111 100
300 296 290 283 265 261 263 263 259 234 223 212 210 206 201 198 186 178 176 179 178 177 176 178 176 174 169 166 167 164 165 162 143 127 117 112 113 121 129 139 151 141 134
300 297 291 280 272 262 260 259 255 235 228 218 208 204 200 193 184 180 178 183 178 174 176 179 180 170 169 170 170 173 169 155 147 138 128 120 113 115 113 107 123 144 150
298 297 296 290 286 284 264 261 251 228 223 214 202 198 193 187 184 182 179 179 171 173 177 174 171 167 168 169 170 160 149 143 143 141 139 140 139 135 124 107 97 93 112
299 297 296 295 288 283 265 255 245 222 212 213 196 195 189 184 181 177 174 170 163 166 167 161 157 158 159 163 158 151 148 149 149 151 156 156 150 145 129 108 86 80 68
296 292 291 286 287 285 278 252 235 221 213 211 201 195 188 178 175 172 173 167 157 151 144 143 143 144 145 146 150 152 154 157 157 157 153 144 136 133 129 125 117 103 77
290 286 290 285 277 280 277 264 243 234 218 211 209 198 186 189 190 177 171 172 169 157 143 138 143 146 147 146 147 148 150 151 151 147 145 144 142 137 131 124 117 105 103
288 287 285 287 283 282 280 287 266 240 224 217 215 204 202 194 172 167 165 159 155 150 146 153 158 160 160 159 159 156 157 158 155 150 149 150 149 148 142 129 117 123 129
278 279 278 278 276 273 272 267 276 307 246 207 203 198 190 178 169 161 156 151 153 151 154 162 165 165 162 160 159 159 160 157 153 151 152 153 150 148 147 146 142 130 128
280 274 271 268 265 263 259 258 241 219 226 236 197 185 177 171 164 157 152 145 155 160 162 165 166 164 159 158 158 154 150 150 151 152 152 152 152 151 151 154 158 154 155
277 275 270 268 264 258 252 251 232 208 208 202 174 164 166 162 158 157 155 160 164 168 165 163 160 158 157 155 155 153 153 153 153 153 152 152 154 152 153 157 158 151 144
273 273 270 265 259 255 245 239 222 203 199 191 189 175 156 153 157 160 161 163 166 165 162 159 156 155 155 154 153 152 150 151 152 152 152 153 154 154 156 157 158 157 161
275 275 270 263 252 245 238 233 221 207 197 193 193 180 173 168 167 166 168 168 167 161 157 155 154 154 153 153 153 153 152 153 154 154 153 154 154 153 154 153 154 153 147
268 267 259 250 247 238 236 225 213 206 196 188 177 161 166 165 164 166 167 162 154 150 151 152 154 155 157 159 157 155 155 154 155 154 153 153 153 151 149 149 148 145 144
259 258 255 250 241 236 234 218 209 203 194 181 168 162 162 163 163 162 156 147 141 139 141 145 146 147 148 151 155 157 159 161 161 159 155 153 151 152 150 150 148 145 144
251 246 242 237 233 228 217 211 207 193 182 177 170 165 166 163 154 147 143 139 136 135 138 141 144 147 146 145 144 144 145 148 150 153 151 150 149 149 147 145 146 148 147
244 239 234 226 223 220 211 203 192 182 180 172 166 159 154 147 143 140 139 137 133 134 135 135 137 141 144 143 142 142 145 145 145 144 142 143 144 144 144 143 142 139 135
237 229 225 216 211 209 206 196 186 178 172 160 152 150 146 143 141 140 139 137 134 133 132 133 136 139 139 138 139 143 144 144 143 142 139 138 141 142 142 139 137 136 134
Height
1368 1367 1367 1368 1369 1370 1372 1373 1376 1379 1382 1386 1389 1393 1397 1403 1407 1412 1417 1422 1428 1433 1439 1445 1449 1454 1458 1462 1465 1468 1471 1473 1474 1475 1477 1479 1480 1481 1481 1481 1480 1479 1478
1364 1364 1363 1363 1364 1365 1366 1368 1371 1373 1377 1380 1384 1387 1392 1397 1401 1406 1411 1416 1422 1427 1433 1438 1443 1448 1453 1457 1460 1463 1466 1468 1470 1471 1473 1474 1476 1477 1477 1477 1476 1475 1474
1361 1360 1360 1359 1360 1361 1362 1363 1366 1369 1372 1375 1378 1382 1387 1391 1396 1401 1406 1411 1417 1421 1426 1431 1436 1442 1446 1451 1455 1458 1461 1464 1466 1468 1469 1471 1472 1472 1473 1473 1473 1472 1471
1358 1358 1356 1356 1356 1356 1357 1359 1361 1363 1366 1369 1373 1378 1382 1386 1391 1396 1401 1406 1412 1416 1421 1426 1431 1436 1440 1445 1449 1453 1456 1459 1461 1463 1465 1467 1468 1468 1469 1468 1468 1468 1467
1355 1354 1353 1353 1353 1353 1353 1355 1357 1359 1362 1365 1369 1373 1377 1381 1386 1391 1396 1401 1406 1411 1416 1421 1425 1430 1435 1440 1444 1447 1451 1454 1456 1459 1461 1462 1463 1464 1464 1464 1464 1464 1463
1352 1350 1350 1350 1349 1350 1350 1351 1353 1355 1358 1361 1365 1368 1372 1376 1381 1386 1390 1395 1400 1405 1410 1415 1420 1425 1430 1435 1439 1443 1446 1449 1451 1454 1456 1457 1458 1460 1460 1461 1461 1460 1459
1348 1347 1347 1346 1346 1345 1346 1347 1348 1350 1353 1356 1360 1363 1367 1371 1376 1381 1385 1390 1395 1399 1405 1410 1414 1419 1424 1429 1433 1437 1441 1444 1448 1450 1452 1453 1455 1456 1457 1457 1457 1457 1456
1344 1343 1343 1342 1342 1342 1342 1343 1343 1345 1348 1352 1355 1358 1362 1366 1372 1376 1380 1385 1389 1394 1400 1405 1409 1414 1418 1423 1428 1431 1435 1439 1443 1446 1448 1450 1452 1452 1453 1454 1454 1453 1453
1340 1339 1338 1338 1338 1338 1339 1339 1340 1342 1344 1347 1350 1353 1357 1361 1367 1371 1376 1380 1385 1390 1395 1400 1405 1409 1413 1418 1423 1426 1431 1435 1438 1441 1444 1446 1448 1449 1450 1450 1450 1450 1449
1336 1335 1335 1335 1335 1335 1335 1336 1337 1338 1340 1343 1346 1349 1353 1357 1362 1367 1372 1375 1380 1385 1391 1396 1400 1404 1409 1413 1417 1422 1425 1429 1433 1437 1440 1442 1444 1445 1446 1447 1447 1446 1446
1333 1332 1332 1332 1331 1331 1332 1333 1333 1334 1336 1338 1342 1345 1349 1353 1358 1363 1367 1372 1376 1381 1385 1390 1395 1400 1404 1409 1413 1418 1422 1426 1429 1433 1436 1438 1440 1441 1442 1443 1443 1443 1443
1330 1329 1328 1328 1327 1328 1328 1329 1330 1332 1333 1335 1338 1341 1345 1350 1354 1358 1363 1368 1372 1377 1381 1386 1391 1396 1400 1405 1410 1414 1418 1422 1426 1429 1432 1434 1436 1437 1439 1440 1440 1440 1441
1327 1326 1325 1325 1324 1325 1325 1326 1327 1329 1330 1332 1335 1338 1341 1346 1350 1355 1359 1364 1369 1373 1378 1383 1388 1392 1397 1402 1406 1410 1414 1418 1422 1425 1427 1430 1433 1435 1436 1437 1437 1438 1438
1323 1322 1322 1322 1321 1321 1322 1323 1323 1325 1327 1329 1332 1334 1338 1341 1345 1350 1354 1360 1365 1370 1375 1380 1385 1390 1394 1399 1403 1407 1411 1414 1418 1421 1424 1427 1430 1431 1433 1434 1435 1435 1436
1320 1319 1318 1318 1318 1318 1318 1319 1320 1322 1324 1326 1328 1331 1334 1337 1341 1346 1349 1355 1360 1365 1370 1376 1381 1386 1390 1394 1399 1403 1407 1411 1414 1417 1421 1423 1426 1428 1430 1431 1432 1433 1434
1316 1314 1314 1314 1314 1314 1314 1316 1317 1319 1321 1323 1325 1328 1331 1335 1339 1343 1347 1352 1357 1362 1367 1371 1376 1381 1385 1390 1395 1399 1403 1407 1411 1414 1417 1420 1423 1425 1427 1429 1430 1431 1432
1311 1311 1310 1310 1310 1310 1311 1312 1313 1315 1317 1320 1322 1326 1329 1332 1336 1340 1344 1349 1354 1359 1363 1368 1372 1377 1382 1387 1391 1395 1399 1404 1408 1411 1414 1417 1420 1422 1424 1426 1428 1429 1429
1307 1306 1306 1306 1306 1307 1307 1309 1310 1311 1313 1316 1320 1323 1326 1330 1334 1338 1342 1346 1351 1356 1360 1364 1369 1374 1379 1384 1388 1392 1397 1401 1405 1408 1411 1415 1417 1420 1422 1423 1425 1426 1427
1302 1301 1301 1301 1302 1302 1304 1306 1307 1309 1311 1313 1317 1320 1324 1328 1331 1335 1339 1342 1346 1351 1356 1361 1366 1371 1376 1381 1386 1390 1394 1398 1402 1405 1409 1412 1415 1417 1419 1421 1423 1425 1426
1297 1297 1297 1297 1298 1299 1300 1302 1304 1306 1308 1311 1314 1316 1321 1324 1327 1331 1335 1339 1344 1348 1353 1358 1363 1368 1373 1378 1383 1387 1391 1396 1399 1403 1407 1410 1413 1415 1418 1420 1421 1423 1424
1292 1292 1292 1293 1293 1295 1297 1299 1300 1302 1305 1308 1311 1314 1317 1321 1324 1328 1333 1337 1341 1345 1350 1356 1361 1366 1371 1376 1380 1385 1389 1393 1397 1401 1404 1408 1411 1413 1416 1418 1420 1421 1422
1287 1287 1287 1288 1290 1291 1293 1295 1297 1299 1302 1305 1308 1311 1315 1319 1322 1326 1330 1334 1339 1344 1349 1354 1359 1364 1369 1373 1378 1383 1387 1391 1395 1399 1402 1406 1409 1412 1414 1416 1418 1420 1421
1281 1282 1283 1284 1286 1288 1290 1292 1294 1296 1299 1302 1305 1308 1312 1316 1320 1324 1328 1333 1337 1342 1348 1353 1357 1362 1367 1372 1377 1382 1385 1389 1393 1397 1400 1404 1407 1410 1412 1415 1417 1418 1420
1276 1277 1278 1280 1282 1284 1286 1288 1291 1293 1296 1299 1302 1306 1310 1314 1318 1323 1327 1331 1336 1341 1346 1351 1356 1361 1366 1371 1376 1380 1385 1389 1392 1396 1399 1402 1405 1408 1411 1413 1415 1417 1419
1271 1273 1275 1276 1278 1280 1283 1285 1288 1291 1294 1297 1300 1304 1308 1312 1316 1321 1326 1330 1335 1340 1345 1350 1355 1360 1366 1370 1375 1379 1384 1388 1392 1395 1398 1402 1405 1407 1410 1412 1414 1416 1418
1267 1268 1270 1272 1275 1277 1279 1282 1285 1288 1291 1295 1298 1302 1306 1310 1315 1320 1324 1329 1334 1339 1344 1349 1355 1360 1365 1370 1375 1379 1383 1387 1391 1394 1397 1401 1404 1407 1409 1411 1413 1415 1417